Location: Bogotá
(4.6533°N, 74.0837°W)
Time: 11:38:00
(UTC+00:00)

ISS - Pass Details

Date: 07 March 2026
Orbit: 416 x 427 km, 51.6° (Epoch: 5 March)

Event Time Altitude Azimuth Distance (km) Brightness Sun altitude
Rises 23:04:11 0° 203° (SSW) 2,375 0.5 0.4°
Reaches altitude 10° 23:06:22 10° 195° (SSW) 1,509 -0.6 -0.2°
Maximum altitude 23:09:33 38° 125° (SE) 658 -3.1 -1.0°
Drops below altitude 10° 23:12:44 10° 55° (NE) 1,504 -1.5 -1.8°
Sets 23:14:55 0° 47° (NE) 2,366 -0.4 -2.3°
